Flag for Germany Weather past 2 weeks in Ludwigshafen, Rhineland-Palatinate, Germany

Now
70 °F

Sunny.


Feels Like: 70 °F
Forecast: 52 / 67 °F
Wind: 3 mph from North

Location: Baden Wurttemberg - Neuostheim

Current Time: May 24, 2015 at 5:40:13 PM

Latest Report: May 24, 2015 at 4:50 PM


Visibility: 10 mi

Pressure: 30.04 "Hg

Humidity: 46%

Dew point: 48 °F

Location of LudwigshafenLocation

Historic Weather in Ludwigshafen — Graph

°F

Ludwigshafen temperature yesterday

Maximum temperature yesterday: 68 °F (at 11:50 AM)
Minimum temperature yesterday: 57 °F (at 7:20 AM)
Average temperature yesterday: 65 °F

Past Weeks' High & Low Weather Summary

 TemperatureHumidityPressure
High86 °F (May 12, 3:50 PM)100% (May 15, 5:50 AM)30.33 "Hg (May 15, 5:50 AM)
Low41 °F (May 22, 5:20 AM)25% (May 18, 6:20 PM)29.71 "Hg (May 18, 6:50 PM)
Average64 °F50%30.08 "Hg
* Reported May 9 4:20 PM — May 24 4:20 PM, Ludwigshafen, Weather by CustomWeather, © 2015

Note: Actual official high and low records may vary slightly from our data, if they occured in-between our weather recording intervals... More about our weather records

Advertising

Ludwigshafen weather history for previous 24 hours

 ConditionsComfort  
Time TempWeatherWind HumidityBarometerVisibility
4:20 PM
Sun, May 24
70 °FSunny.3 mph46%30.04 "Hg10 mi
3:50 PM70 °FSunny.5 mph46%30.04 "Hg10 mi
3:20 PM72 °FPassing clouds.7 mph47%30.07 "HgN/A
2:50 PM70 °FPassing clouds.6 mph46%30.07 "HgN/A
1:50 PM68 °FPartly sunny.7 mph49%30.07 "HgN/A
1:20 PM68 °FBroken clouds.3 mph49%30.07 "HgN/A
12:50 PM70 °FPartly sunny.3 mph53%30.07 "HgN/A
12:20 PM68 °FPartly sunny.5 mph56%30.09 "HgN/A
11:50 AM66 °FPartly sunny.5 mph56%30.09 "HgN/A
11:20 AM66 °FPassing clouds.5 mph60%30.09 "HgN/A
10:50 AM64 °FPassing clouds.5 mph68%30.09 "HgN/A
10:20 AM63 °FPassing clouds.6 mph68%30.09 "HgN/A
9:50 AM61 °FPassing clouds.6 mph72%30.09 "HgN/A
9:20 AM61 °FSunny.6 mph72%30.09 "Hg10 mi
8:50 AM59 °FPassing clouds.5 mph77%30.09 "HgN/A
8:20 AM59 °FSunny.5 mph77%30.09 "Hg10 mi
7:50 AM59 °FPassing clouds.6 mph77%30.09 "HgN/A
7:50 PM
Sat, May 23
66 °FPassing clouds.9 mph49%30.07 "HgN/A
7:20 PM66 °FPassing clouds.10 mph49%30.07 "HgN/A
6:50 PM66 °FPassing clouds.8 mph46%30.07 "HgN/A
6:20 PM68 °FPassing clouds.8 mph43%30.07 "HgN/A
5:50 PM68 °FSunny.9 mph43%30.07 "Hg10 mi
5:20 PM68 °FPassing clouds.9 mph38%30.07 "HgN/A
Weather by CustomWeather, © 2015

See weather overviewHow to use our weather pages